Location: Kvarnån
(66.4000°N, 22.2667°E)
Time: 22:37:53
(UTC+00:00)

Cosmos 1417 Rocket - Pass Details

Date: 15 October 2024
Orbit: 950 x 999 km, 83.0° (Epoch: 06 November)

Event Time Altitude Azimuth Distance (km) Brightness Sun altitude
Exits shadow 18:13:47 - 177° (S) 3,683 7.3 -19.6°
Reaches altitude 10° 18:16:15 10° 174° (S) 2,764 6.6 -19.8°
Maximum altitude 18:22:29 61° 96° (E) 1,117 4.5 -20.4°
Drops below altitude 10° 18:28:41 10° 18° (NNE) 2,752 7.0 -20.9°
Sets 18:31:13 0° 16° (NNE) 3,696 7.7 -21.2°
